Flag for Slovakia Weather past 2 weeks in Prešov, Slovakia

Now
48 °F

Clear.


Feels Like: 44 °F
Forecast: 51 / 63 °F
Wind: 9 mph from South

Location: Kosice - Barca

Current Time: Oct 20, 2014 at 6:58:40 AM

Latest Report: Oct 20, 2014 at 5:00 AM


Visibility: 10 mi

Pressure: 30.09 "Hg

Humidity: 100%

Dew point: 48 °F

Location of PrešovLocation

Historic Weather in Prešov — Graph

°F

Prešov temperature yesterday

Maximum temperature yesterday: 59 °F (at 11:30 AM)
Minimum temperature yesterday: 45 °F (at 2:30 AM)
Average temperature yesterday: 53 °F

Past Weeks' High & Low Weather Summary

 TemperatureHumidityPressure
High73 °F (Oct 12, 1:30 PM)100% (Oct 5, 5:00 AM)30.39 "Hg (Oct 5, 5:00 AM)
Low45 °F (Oct 19, 2:30 AM)53% (Oct 11, 2:30 PM)29.77 "Hg (Oct 15, 4:00 PM)
Average57 °F86%30.05 "Hg
* Reported Oct 5 5:00 AM — Oct 20 5:00 AM, Prešov, Weather by CustomWeather, © 2014

Note: Actual official high and low records may vary slightly from our data, if they occured in-between our weather recording intervals... More about our weather records

Advertising

Prešov weather history for previous 24 hours

 ConditionsComfort  
Time TempWeatherWind HumidityBarometerVisibility
5:00 AM
Oct 20
48 °FClear.9 mph100%30.09 "Hg10 mi
4:30 AM50 °FClear.9 mph94%30.09 "Hg10 mi
4:00 AM50 °FClear.10 mph94%30.09 "Hg10 mi
3:30 AM50 °FClear.9 mph94%30.09 "Hg10 mi
3:00 AM52 °FClear.9 mph94%30.12 "Hg10 mi
2:30 AM52 °FClear.10 mph94%30.12 "Hg10 mi
2:00 AM54 °FPassing clouds.14 mph88%30.12 "HgN/A
1:30 AM54 °FOvercast.12 mph88%30.15 "HgN/A
1:00 AM55 °FOvercast.13 mph82%30.15 "HgN/A
12:30 AM55 °FPassing clouds.9 mph88%30.15 "HgN/A
12:00 AM55 °FPassing clouds.12 mph88%30.15 "HgN/A
11:30 PM
Oct 19
55 °FPassing clouds.8 mph88%30.18 "HgN/A
11:00 PM54 °FPassing clouds.9 mph94%30.18 "HgN/A
10:30 PM55 °FPartly cloudy.13 mph88%30.18 "HgN/A
10:00 PM55 °FMostly cloudy.9 mph88%30.18 "HgN/A
9:30 PM55 °FMostly cloudy.10 mph88%30.18 "HgN/A
9:00 PM55 °FMostly cloudy.10 mph88%30.18 "HgN/A
8:30 PM55 °FPassing clouds.9 mph88%30.21 "HgN/A
8:00 PM55 °FPassing clouds.13 mph88%30.21 "HgN/A
7:30 PM57 °FPartly cloudy.12 mph82%30.21 "HgN/A
7:00 PM55 °FPassing clouds.12 mph88%30.21 "HgN/A
6:30 PM57 °FPartly sunny.10 mph82%30.21 "HgN/A
6:00 PM57 °FPartly sunny.12 mph82%30.21 "HgN/A
5:30 PM57 °FPartly sunny.9 mph82%30.21 "HgN/A
5:00 PM59 °FPartly sunny.9 mph77%30.24 "HgN/A
4:30 PM59 °FScattered clouds.9 mph77%30.24 "HgN/A
4:00 PM59 °FPartly sunny.12 mph77%30.24 "HgN/A
3:30 PM59 °FPartly sunny.13 mph77%30.27 "HgN/A
3:00 PM59 °FScattered clouds.8 mph77%30.27 "HgN/A
2:30 PM59 °FScattered clouds.13 mph72%30.27 "HgN/A
2:00 PM59 °FPassing clouds.12 mph68%30.30 "HgN/A
1:30 PM59 °FScattered clouds.12 mph72%30.30 "HgN/A
1:00 PM57 °FPartly sunny.9 mph72%30.33 "HgN/A
12:30 PM57 °FPartly sunny.9 mph72%30.33 "HgN/A
12:00 PM57 °FPartly sunny.8 mph72%30.33 "HgN/A
11:30 AM59 °FScattered clouds.10 mph72%30.33 "HgN/A
11:00 AM57 °FPassing clouds.10 mph72%30.33 "HgN/A
10:30 AM57 °FPassing clouds.8 mph77%30.33 "HgN/A
10:00 AM52 °FScattered clouds.9 mph94%30.33 "Hg5 mi
9:30 AM50 °FFog.2 mph100%30.33 "Hg2 mi
9:00 AM48 °FFog.2 mph100%30.33 "Hg2 mi
8:30 AM48 °FSnow. Fog.1 mph100%30.33 "Hg3 mi
8:00 AM48 °FSnow. Scattered clouds.1 mph94%30.33 "Hg3 mi
7:30 AM46 °FSnow. Passing clouds.1 mph100%30.33 "Hg3 mi
7:00 AM46 °FFog.1 mph93%30.33 "Hg1 mi
6:30 AM45 °FFog.2 mph100%30.33 "Hg2 mi
6:00 AM46 °FPassing clouds.No wind100%30.33 "Hg4 mi
Weather by CustomWeather, © 2014

See weather overviewHow to use our weather pages